TimeEDT,TemperatureF,Dew PointF,Humidity,Sea Level PressureIn,VisibilityMPH,Wind Direction,Wind SpeedMPH,Gust SpeedMPH,PrecipitationIn,Events,Conditions,WindDirDegrees,DateUTC
12:15 AM,71.6,71.6,100,30.14,10.0,North,3.5,-,N/A,,Overcast,360,2013-08-18 04:15:00
12:35 AM,71.6,71.6,100,30.14,10.0,Calm,Calm,-,N/A,,Overcast,0,2013-08-18 04:35:00
12:55 AM,71.4,71.4,100,30.14,10.0,Calm,Calm,-,N/A,,Overcast,0,2013-08-18 04:55:00
1:15 AM,71.4,71.4,100,30.14,10.0,Calm,Calm,-,N/A,,Overcast,0,2013-08-18 05:15:00
1:35 AM,71.2,71.2,100,30.13,7.0,NNE,3.5,-,N/A,,Overcast,30,2013-08-18 05:35:00
1:55 AM,71.2,71.2,100,30.13,5.0,Calm,Calm,-,N/A,,Overcast,0,2013-08-18 05:55:00
2:15 AM,71.2,71.2,100,30.13,4.0,Calm,Calm,-,N/A,,Overcast,0,2013-08-18 06:15:00
2:35 AM,71.1,71.1,100,30.13,5.0,Calm,Calm,-,N/A,,Overcast,0,2013-08-18 06:35:00
2:55 AM,71.1,71.1,100,30.12,2.5,Calm,Calm,-,N/A,,Overcast,0,2013-08-18 06:55:00
3:15 AM,71.1,71.1,100,30.13,2.5,Calm,Calm,-,N/A,,Overcast,0,2013-08-18 07:15:00
3:35 AM,70.9,70.9,100,30.13,4.0,Calm,Calm,-,N/A,,Overcast,0,2013-08-18 07:35:00
3:55 AM,71.1,71.1,100,30.13,4.0,Calm,Calm,-,N/A,,Overcast,0,2013-08-18 07:55:00
4:15 AM,71.1,71.1,100,30.13,4.0,Calm,Calm,-,N/A,,Overcast,0,2013-08-18 08:15:00
4:35 AM,71.1,71.1,100,30.13,5.0,Calm,Calm,-,N/A,,Overcast,0,2013-08-18 08:35:00
4:55 AM,71.2,71.2,100,30.13,2.5,Calm,Calm,-,N/A,,Overcast,0,2013-08-18 08:55:00
5:15 AM,71.2,71.2,100,30.13,1.5,Calm,Calm,-,N/A,,Overcast,0,2013-08-18 09:15:00
5:35 AM,71.6,71.6,100,30.14,1.2,Calm,Calm,-,N/A,,Overcast,0,2013-08-18 09:35:00
5:55 AM,71.6,71.6,100,30.14,1.2,Calm,Calm,-,N/A,,Overcast,0,2013-08-18 09:55:00
6:15 AM,71.2,71.2,100,30.15,3.0,Calm,Calm,-,N/A,,Overcast,0,2013-08-18 10:15:00
6:35 AM,71.2,71.2,100,30.15,4.0,Calm,Calm,-,N/A,,Overcast,0,2013-08-18 10:35:00
6:55 AM,71.6,71.6,100,30.16,4.0,West,3.5,-,N/A,,Overcast,260,2013-08-18 10:55:00
7:15 AM,71.6,71.6,100,30.16,4.0,SW,3.5,-,N/A,,Overcast,230,2013-08-18 11:15:00
7:35 AM,71.8,71.8,100,30.17,4.0,SW,3.5,-,N/A,,Mostly Cloudy,220,2013-08-18 11:35:00
7:55 AM,72.5,72.5,100,30.17,5.0,SW,3.5,-,N/A,,Mostly Cloudy,220,2013-08-18 11:55:00
8:15 AM,72.5,72.5,100,30.17,7.0,SW,3.5,-,N/A,,Overcast,220,2013-08-18 12:15:00
8:35 AM,73.2,73.2,100,30.17,10.0,SSW,5.8,-,N/A,,Overcast,210,2013-08-18 12:35:00
8:55 AM,74.3,74.1,99,30.18,10.0,West,6.9,-,N/A,,Overcast,260,2013-08-18 12:55:00
9:15 AM,74.7,73.6,96,30.18,10.0,WSW,4.6,-,N/A,,Overcast,240,2013-08-18 13:15:00
9:35 AM,75.4,73.2,93,30.18,10.0,WSW,6.9,-,N/A,,Overcast,240,2013-08-18 13:35:00
9:55 AM,75.7,72.9,91,30.18,10.0,SW,6.9,-,N/A,,Overcast,230,2013-08-18 13:55:00
10:15 AM,76.6,72.5,87,30.19,10.0,West,5.8,-,N/A,,Mostly Cloudy,260,2013-08-18 14:15:00
10:35 AM,77.0,72.9,87,30.19,10.0,SW,8.1,-,N/A,,Mostly Cloudy,230,2013-08-18 14:35:00
10:55 AM,78.8,73.2,83,30.19,10.0,SW,5.8,-,N/A,,Mostly Cloudy,220,2013-08-18 14:55:00
11:15 AM,80.1,73.2,80,30.19,10.0,WSW,4.6,-,N/A,,Mostly Cloudy,250,2013-08-18 15:15:00
11:35 AM,80.8,72.9,77,30.19,10.0,WSW,6.9,-,N/A,,Mostly Cloudy,250,2013-08-18 15:35:00
11:55 AM,81.7,73.4,76,30.19,10.0,WSW,9.2,-,N/A,,Mostly Cloudy,240,2013-08-18 15:55:00
12:15 PM,79.9,71.8,76,30.19,10.0,West,5.8,-,N/A,,Mostly Cloudy,260,2013-08-18 16:15:00
12:35 PM,81.1,72.3,74,30.18,10.0,West,8.1,-,N/A,,Overcast,270,2013-08-18 16:35:00
12:55 PM,81.5,72.9,75,30.18,10.0,West,8.1,-,N/A,,Mostly Cloudy,260,2013-08-18 16:55:00
1:15 PM,82.2,71.6,70,30.18,10.0,West,6.9,-,N/A,,Mostly Cloudy,270,2013-08-18 17:15:00
1:35 PM,81.9,72.3,73,30.17,10.0,WSW,6.9,-,N/A,,Mostly Cloudy,240,2013-08-18 17:35:00
1:55 PM,83.8,72.5,69,30.18,10.0,WSW,8.1,18.4,N/A,,Overcast,250,2013-08-18 17:55:00
2:15 PM,83.7,72.1,68,30.17,10.0,West,9.2,-,N/A,,Mostly Cloudy,260,2013-08-18 18:15:00
2:35 PM,84.7,72.5,67,30.17,10.0,West,4.6,-,N/A,,Clear,270,2013-08-18 18:35:00
2:55 PM,84.2,71.2,65,30.16,10.0,West,5.8,-,N/A,,Scattered Clouds,260,2013-08-18 18:55:00
3:15 PM,83.5,71.6,67,30.16,10.0,West,6.9,-,N/A,,Mostly Cloudy,260,2013-08-18 19:15:00
3:35 PM,85.1,70.3,61,30.16,10.0,West,6.9,-,N/A,,Scattered Clouds,280,2013-08-18 19:35:00
3:55 PM,84.6,70.3,62,30.15,10.0,WSW,6.9,-,N/A,,Mostly Cloudy,240,2013-08-18 19:55:00
4:15 PM,83.8,70.5,64,30.14,10.0,WSW,6.9,-,N/A,,Mostly Cloudy,240,2013-08-18 20:15:00
4:35 PM,84.2,70.0,62,30.14,10.0,West,6.9,-,N/A,,Scattered Clouds,260,2013-08-18 20:35:00
4:55 PM,83.7,69.8,63,30.14,10.0,West,5.8,-,N/A,,Scattered Clouds,260,2013-08-18 20:55:00
5:15 PM,83.7,70.5,64,30.14,10.0,WSW,4.6,-,N/A,,Mostly Cloudy,250,2013-08-18 21:15:00
5:35 PM,82.8,70.9,67,30.15,10.0,West,4.6,-,N/A,,Mostly Cloudy,260,2013-08-18 21:35:00
5:55 PM,83.3,70.3,65,30.15,10.0,WNW,3.5,-,N/A,,Mostly Cloudy,300,2013-08-18 21:55:00
6:15 PM,82.9,71.1,67,30.14,10.0,Calm,Calm,-,N/A,,Overcast,0,2013-08-18 22:15:00
6:35 PM,82.8,70.3,66,30.14,10.0,WNW,3.5,-,N/A,,Scattered Clouds,290,2013-08-18 22:35:00
6:55 PM,81.7,70.7,69,30.13,10.0,Calm,Calm,-,N/A,,Scattered Clouds,0,2013-08-18 22:55:00
7:15 PM,82.9,70.3,66,30.14,10.0,Calm,Calm,-,N/A,,Scattered Clouds,0,2013-08-18 23:15:00
7:35 PM,81.3,70.5,70,30.14,10.0,Calm,Calm,-,N/A,,Clear,0,2013-08-18 23:35:00
7:55 PM,78.4,72.9,83,30.15,10.0,Calm,Calm,-,N/A,,Clear,0,2013-08-18 23:55:00
8:15 PM,76.1,73.4,91,30.15,10.0,Calm,Calm,-,N/A,,Clear,0,2013-08-19 00:15:00
8:35 PM,75.4,73.4,94,30.16,10.0,Calm,Calm,-,N/A,,Scattered Clouds,0,2013-08-19 00:35:00
8:55 PM,75.0,73.0,94,30.16,10.0,North,5.8,-,N/A,,Clear,360,2013-08-19 00:55:00
9:15 PM,76.1,71.8,86,30.17,10.0,North,4.6,-,N/A,,Clear,360,2013-08-19 01:15:00
9:35 PM,75.4,70.9,86,30.18,10.0,North,5.8,-,N/A,,Clear,350,2013-08-19 01:35:00
9:55 PM,74.3,70.9,89,30.18,10.0,North,5.8,-,N/A,,Clear,10,2013-08-19 01:55:00
10:15 PM,72.9,71.1,94,30.19,10.0,NNE,4.6,-,N/A,,Clear,20,2013-08-19 02:15:00
10:35 PM,72.5,70.9,95,30.19,10.0,NNE,5.8,-,N/A,,Clear,20,2013-08-19 02:35:00
10:55 PM,71.8,70.7,96,30.19,10.0,NNE,5.8,-,N/A,,Clear,20,2013-08-19 02:55:00
11:15 PM,71.1,70.2,97,30.20,10.0,NNE,6.9,-,N/A,,Clear,20,2013-08-19 03:15:00
11:35 PM,70.9,70.0,97,30.20,10.0,NNE,5.8,-,N/A,,Clear,20,2013-08-19 03:35:00
11:55 PM,70.2,70.0,99,30.21,10.0,North,3.5,-,N/A,,Clear,10,2013-08-19 03:55:00